sat.trackr.live / text

‹ back to catalog

STARLINK-37041

NORAD 68104 · 2026-044D

PAYLOAD ACTIVE UNKNOWN

§ Identity

Operator
Country
US
Launch date
2026-03-08
Launch site
AFWTR
Launch vehicle
Mass (kg)
RCS (m²)

Purposes: comms

External: N2YO · Heavens-Above · Gunter

§ Orbital elements

Epoch: 2026-05-24T20:41:26.956320Z

Period
93.91 min
Inclination
97.2857°
Eccentricity
0.0002126
Mean motion
15.33457015 rev/d
Perigee alt
464.1 km
Apogee alt
467.0 km
Semi-major
6,843.6 km
B*
9.0996e-4
RAAN
105.4475°
Arg perigee
94.7423°
Mean anomaly
265.4063°
Rev number
1,325

§ Raw data

STARLINK-370411 68104U 26044D   26144.86211755  .00029429  00000+0  90996-3 0  99982 68104  97.2857 105.4475 0002126  94.7423 265.4063 15.33457015 13256

JSON: /api/v1/satellites/68104 · /tle

For live sub-satellite position, see the globe view (requires WebGL).

§ Visibility from observer

Set your observer location to see the next 7 days of passes ≥ 10°. The values pass through the URL so the page stays shareable.

No JS? Fill the form by hand. The geolocation button needs JavaScript.